STARLINK-6107, 56117

Orbit data source: Space-Track

STARLINK-6107, 56117 is a payload satellite owned by SpaceX/Seattle (US) in LEO that was launched on Wed, 29 Mar 2023 UTC via an FALCON 9 launch vehicle from the Air Force Eastern Test Range (AFETR). Payload-class satellites include a variety of spacecraft equipped with specific instruments for various scientific and technological missions. These include communications satellites like Starlink; space stations such as the ISS; scientific satellites like the Hubble; Earth observation satellites from companies like Planet Labs, Umbra, and HawkEye 360; GPS; miniature CubeSats for education and research; and military/defense satellites.

Loading next visibility...
Identifier
56117, 2023-046AA
Orbit
LEO
Country
Flag of USUS
Related business
Manufacturer
SpaceX/Seattle
Mission
Operational Commercial Communications
Bus & Motor
STARLINK, Unknown motor
Mass
305 kg wet, ~290 kg dry
Launch date (UTC)
2023-03-29 (3 years ago)
Launch vehicle
FALCON 9
Launch site
Air Force Eastern Test Range (AFETR)
Object type
Payload
Rocket body
Debris
Shape & HBR
Box + 1 Pan, 10.1 m
Radar Cross Section
11.087 m², Large (>1 m²)

Expand to show TLE details & history
Last TLE update: 2 days ago

TLE from 2 days ago
0 STARLINK-6107
1 56117U 23046AA  26171.37875056  .00000165  00000-0  15532-4 0  9995
2 56117  43.0049 287.1912 0001928 282.1035  77.9601 15.27576860177904
Epoch: 2026-06-20T09:05Z
TLE epoch observation values (Epoch: 2026-06-20T09:05:24.048Z)
Latitude
0.00001°
Longitude
-117.75321°
Altitude
482.559 km
Speed
7.626 km/s
True Right ascension
19h 08m 45s
True Declination
0° 00' 00"
Sunlit
Object was in full shadow at epoch
Visualization orbit readout
Latitude
Unknown
Longitude
Unknown
Altitude
Unknown
Speed
Unknown
Apparent Right ascension
Unknown
Apparent Declination
Unknown
Sunlit
N/A
Visualization observer readout
Local Sidereal Time
21:49:32
Azimuth
Unknown
Elevation
Unknown
Doppler factor
Unknown
Orbital elements
Apogee altitude
486.326 km
Perigee altitude
483.68 km
Semi-major axis
6,863.14 km
Eccentricity
0.00019
Inclination
43.0049°
RAAN
287.1912°
Arg. of periapsis
282.1035°
True anomaly
77.98171°
Mean anomaly
77.9601°
Eccentric anomaly
77.9709°
Mean motion
3.81732 °/min
Orbital period
94.31 mins
BSTAR
0.000015532
Loading maneuver chart data...
Computing Atmospheric mass density...

Documentation

Showing up to 5 results
|